Terminal Aerodrome Forecast
Issued by NWS Houston/Galveston, TX

Home | Current Version | Previous Version | Text Only | Print | Product List | Glossary On
Versions: 1 2 3 4 5 6 7 8 9 10 11 12 13 14 15 16 17 18 19 20 21 22 23 24 25 26 27 28 29 30 31 32 33 34 35 36 37 38 39 40 41 42 43 44 45 46 47 48 49 50
000
FTUS44 KHGX 290531
TAFGLS
TAF
KGLS 290531Z 2906/3006 15015KT P6SM BKN014
     FM291200 13011KT P6SM VCTS BKN035CB
      TEMPO 2913/2915 VRB25KT 3SM TSRA BKN030CB
     FM291800 15013KT P6SM SCT030
     FM300000 15010KT P6SM SCT015 SCT250=

USA.gov is the U.S. government's official web portal to all federal, state and local government web resources and services.